Location: *
(58.4167°N, 22.5000°E)
Time: 16:01:30
(UTC+00:00)

Meteor 1-24 Rocket - Pass Details

Date: 22 September 2019
Orbit: 791 x 926 km, 81.2° (Epoch: 22 October)

Event Time Altitude Azimuth Distance (km) Brightness Sun altitude
Rises 17:05:27 0° 344° (NNW) 3,442 7.2 -5.4°
Reaches altitude 10° 17:08:00 10° 351° (N) 2,524 6.4 -5.7°
Maximum altitude 17:13:26 41° 62° (ENE) 1,268 4.3 -6.4°
Drops below altitude 10° 17:19:00 10° 132° (SE) 2,589 5.7 -7.1°
Enters shadow 17:21:04 - 138° (SE) 3,330 6.3 -7.4°
